• In Österreich
  • Länderverzeichnis
  • Für 7 Tage
  • Wassertemperatur
  • Satellitenkarten
  • Wetterkarte
  • News
  • Widgets
  • user-avatar
    Anmelden

    Stündliche Wetter Townsville

    Heute, 25 Mai, Freitag

    Zeit Temperatur Niederschläge Wind Luftdruck Luftfeuchtigkeit
    00:00 +19°C° 0 mm 4 m/S 756 mmHg 88%
    01:00 +19°C° 0 mm 4 m/S 755 mmHg 89%
    02:00 +19°C° 0,1 mm 4 m/S 755 mmHg 90%
    03:00 +19°C° 0,1 mm 4 m/S 755 mmHg 92%
    04:00 +19°C° 0 mm 4 m/S 755 mmHg 93%
    05:00 +19°C° 0,2 mm 4 m/S 755 mmHg 94%
    06:00 +19°C° 0,2 mm 4 m/S 755 mmHg 94%
    07:00 +19°C° 0,2 mm 4 m/S 756 mmHg 95%
    08:00 +21°C° 0,2 mm 4 m/S 756 mmHg 88%
    09:00 +23°C° 0,2 mm 5 m/S 756 mmHg 80%
    10:00 +25°C° 0 mm 5 m/S 756 mmHg 73%
    11:00 +26°C° 0,7 mm 5 m/S 756 mmHg 71%
    12:00 +26°C° 0,7 mm 5 m/S 755 mmHg 70%
    13:00 +27°C° 0,7 mm 5 m/S 755 mmHg 69%
    14:00 +26°C° 1,3 mm 5 m/S 755 mmHg 72%
    15:00 +26°C° 1,3 mm 5 m/S 754 mmHg 75%
    16:00 +25°C° 0 mm 5 m/S 754 mmHg 76%
    17:00 +23°C° 0,4 mm 5 m/S 755 mmHg 81%
    18:00 +22°C° 0,4 mm 5 m/S 755 mmHg 87%
    19:00 +20°C° 0,4 mm 5 m/S 755 mmHg 92%
    20:00 +20°C° 0,3 mm 5 m/S 756 mmHg 93%
    21:00 +20°C° 0,3 mm 5 m/S 756 mmHg 94%
    22:00 +19°C° 0,3 mm 5 m/S 756 mmHg 95%
    23:00 +19°C° 0,4 mm 5 m/S 756 mmHg 96%

    Morgen, 26 Mai, Samstag

    Zeit Temperatur Niederschläge Wind Luftdruck Luftfeuchtigkeit
    00:00 +19°C° 0,4 mm 5 m/S 756 mmHg 96%
    01:00 +17°C° 0,4 mm 5 m/S 756 mmHg 97%
    02:00 +17°C° 0,1 mm 5 m/S 756 mmHg 97%
    03:00 +17°C° 0,1 mm 5 m/S 756 mmHg 97%
    04:00 +17°C° 0,1 mm 5 m/S 756 mmHg 97%
    05:00 +17°C° 0,1 mm 5 m/S 756 mmHg 97%
    06:00 +17°C° 0,1 mm 5 m/S 756 mmHg 97%
    07:00 +17°C° 0,1 mm 5 m/S 757 mmHg 96%
    08:00 +19°C° 0,1 mm 6 m/S 757 mmHg 91%
    09:00 +21°C° 0,1 mm 6 m/S 757 mmHg 86%
    10:00 +22°C° 0,1 mm 6 m/S 757 mmHg 81%
    11:00 +23°C° 0,3 mm 7 m/S 757 mmHg 78%
    12:00 +24°C° 0,3 mm 7 m/S 756 mmHg 75%
    13:00 +26°C° 0,3 mm 7 m/S 756 mmHg 72%
    14:00 +24°C° 0,6 mm 7 m/S 756 mmHg 74%
    15:00 +24°C° 0,6 mm 7 m/S 756 mmHg 76%
    16:00 +24°C° 0,6 mm 7 m/S 755 mmHg 78%
    17:00 +23°C° 0,2 mm 7 m/S 756 mmHg 82%
    18:00 +22°C° 0,2 mm 7 m/S 756 mmHg 85%
    19:00 +20°C° 0,2 mm 7 m/S 756 mmHg 89%
    20:00 +20°C° 0,1 mm 7 m/S 757 mmHg 90%
    21:00 +20°C° 0,1 mm 7 m/S 757 mmHg 91%
    22:00 +18°C° 0,1 mm 7 m/S 757 mmHg 91%
    23:00 +18°C° 0,2 mm 7 m/S 757 mmHg 92%

    übermorgen, 27 Mai, Sonntag

    Zeit Temperatur Niederschläge Wind Luftdruck Luftfeuchtigkeit
    00:00 +19°C° 0,2 mm 6 m/S 757 mmHg 93%
    01:00 +19°C° 0,2 mm 6 m/S 757 mmHg 93%
    02:00 +19°C° 0,2 mm 6 m/S 757 mmHg 93%
    03:00 +19°C° 0,2 mm 6 m/S 756 mmHg 93%
    04:00 +19°C° 0,2 mm 6 m/S 756 mmHg 94%
    05:00 +17°C° 0,1 mm 6 m/S 756 mmHg 94%
    06:00 +17°C° 0,1 mm 6 m/S 757 mmHg 94%
    07:00 +17°C° 0,1 mm 6 m/S 757 mmHg 94%
    08:00 +20°C° 0,1 mm 6 m/S 757 mmHg 89%
    09:00 +21°C° 0,1 mm 6 m/S 757 mmHg 84%
    10:00 +23°C° 0,1 mm 6 m/S 757 mmHg 79%
    11:00 +24°C° 0,1 mm 6 m/S 757 mmHg 74%
    12:00 +26°C° 0,1 mm 6 m/S 756 mmHg 70%
    13:00 +27°C° 0,1 mm 6 m/S 756 mmHg 65%
    14:00 +27°C° 0,1 mm 6 m/S 756 mmHg 66%
    15:00 +27°C° 0,1 mm 6 m/S 755 mmHg 66%
    16:00 +26°C° 0,1 mm 6 m/S 755 mmHg 66%
    17:00 +24°C° 0 mm 6 m/S 755 mmHg 74%
    18:00 +22°C° 0 mm 6 m/S 755 mmHg 81%
    19:00 +21°C° 0 mm 6 m/S 756 mmHg 88%
    20:00 +21°C° 0 mm 6 m/S 756 mmHg 90%
    21:00 +20°C° 0 mm 6 m/S 756 mmHg 91%
    22:00 +20°C° 0 mm 6 m/S 757 mmHg 93%
    23:00 +20°C° 0,1 mm 6 m/S 756 mmHg 94%

    28 Mai, Montag

    Zeit Temperatur Niederschläge Wind Luftdruck Luftfeuchtigkeit
    00:00 +19°C° 0,1 mm 5 m/S 756 mmHg 94%
    01:00 +19°C° 0,1 mm 5 m/S 756 mmHg 95%
    02:00 +19°C° 0,1 mm 5 m/S 756 mmHg 96%
    03:00 +19°C° 0,1 mm 5 m/S 755 mmHg 96%
    04:00 +19°C° 0,1 mm 5 m/S 755 mmHg 96%
    05:00 +19°C° 0,2 mm 5 m/S 756 mmHg 96%
    06:00 +19°C° 0,2 mm 5 m/S 756 mmHg 96%
    07:00 +19°C° 0,2 mm 5 m/S 756 mmHg 97%
    08:00 +20°C° 0,1 mm 5 m/S 757 mmHg 90%
    09:00 +22°C° 0,1 mm 5 m/S 757 mmHg 84%
    10:00 +23°C° 0,1 mm 5 m/S 757 mmHg 78%
    11:00 +25°C° 0,2 mm 5 m/S 756 mmHg 75%
    12:00 +26°C° 0,2 mm 5 m/S 756 mmHg 72%
    13:00 +27°C° 0,2 mm 5 m/S 755 mmHg 70%
    14:00 +26°C° 0,3 mm 5 m/S 755 mmHg 71%
    15:00 +26°C° 0,3 mm 6 m/S 755 mmHg 73%
    16:00 +26°C° 0,3 mm 6 m/S 754 mmHg 74%
    17:00 +23°C° 0 mm 6 m/S 755 mmHg 80%
    18:00 +22°C° 0 mm 5 m/S 755 mmHg 85%
    19:00 +21°C° 0 mm 5 m/S 755 mmHg 91%
    20:00 +21°C° 0,1 mm 5 m/S 756 mmHg 91%
    21:00 +20°C° 0,1 mm 6 m/S 756 mmHg 92%
    22:00 +20°C° 0,1 mm 6 m/S 756 mmHg 93%
    23:00 +20°C° 0,1 mm 6 m/S 756 mmHg 94%

    29 Mai, Dienstag

    Zeit Temperatur Niederschläge Wind Luftdruck Luftfeuchtigkeit
    00:00 +19°C° 0,1 mm 5 m/S 756 mmHg 95%
    01:00 +19°C° 0,1 mm 5 m/S 756 mmHg 95%
    02:00 +19°C° 0,3 mm 5 m/S 755 mmHg 95%
    03:00 +19°C° 0,3 mm 5 m/S 755 mmHg 95%
    04:00 +19°C° 0,3 mm 5 m/S 755 mmHg 95%
    05:00 +19°C° 0,2 mm 6 m/S 755 mmHg 96%
    06:00 +19°C° 0,2 mm 6 m/S 756 mmHg 96%
    07:00 +17°C° 0,2 mm 6 m/S 756 mmHg 97%
    08:00 +20°C° 0 mm 6 m/S 756 mmHg 88%
    09:00 +22°C° 0 mm 6 m/S 757 mmHg 80%
    10:00 +24°C° 0 mm 6 m/S 757 mmHg 72%
    11:00 +27°C° 0 mm 6 m/S 756 mmHg 67%
    12:00 +28°C° 0 mm 6 m/S 756 mmHg 61%
    13:00 +29°C° 0 mm 6 m/S 755 mmHg 56%
    14:00 +28°C° 0,2 mm 6 m/S 755 mmHg 61%
    15:00 +27°C° 0,2 mm 6 m/S 755 mmHg 66%
    16:00 +26°C° 0,2 mm 6 m/S 755 mmHg 71%
    17:00 +24°C° 0,3 mm 6 m/S 755 mmHg 78%
    18:00 +22°C° 0,3 mm 6 m/S 756 mmHg 85%
    19:00 +21°C° 0,3 mm 5 m/S 756 mmHg 91%
    20:00 +21°C° 0,1 mm 5 m/S 757 mmHg 92%
    21:00 +20°C° 0,1 mm 5 m/S 757 mmHg 93%
    22:00 +20°C° 0,1 mm 5 m/S 757 mmHg 94%
    23:00 +20°C° 0 mm 5 m/S 757 mmHg 95%

    30 Mai, Mittwoch

    Zeit Temperatur Niederschläge Wind Luftdruck Luftfeuchtigkeit
    00:00 +19°C° 0 mm 5 m/S 757 mmHg 95%
    01:00 +19°C° 0 mm 5 m/S 757 mmHg 95%
    02:00 +17°C° 0 mm 5 m/S 757 mmHg 95%
    03:00 +17°C° 0 mm 5 m/S 757 mmHg 95%
    04:00 +17°C° 0 mm 5 m/S 757 mmHg 95%
    05:00 +17°C° 0 mm 5 m/S 757 mmHg 95%
    06:00 +17°C° 0 mm 5 m/S 757 mmHg 95%
    07:00 +16°C° 0 mm 5 m/S 758 mmHg 95%
    08:00 +20°C° 0 mm 5 m/S 758 mmHg 83%
    09:00 +22°C° 0 mm 5 m/S 758 mmHg 72%
    10:00 +24°C° 0 mm 6 m/S 758 mmHg 61%
    11:00 +26°C° 0 mm 6 m/S 758 mmHg 54%
    12:00 +28°C° 0 mm 5 m/S 757 mmHg 48%
    13:00 +29°C° 0 mm 5 m/S 757 mmHg 41%
    14:00 +29°C° 0 mm 5 m/S 756 mmHg 42%
    15:00 +28°C° 0 mm 5 m/S 756 mmHg 42%
    16:00 +28°C° 0 mm 5 m/S 756 mmHg 43%
    17:00 +26°C° 0 mm 5 m/S 757 mmHg 53%
    18:00 +23°C° 0 mm 5 m/S 757 mmHg 63%
    19:00 +22°C° 0 mm 5 m/S 758 mmHg 74%
    20:00 +21°C° 0 mm 5 m/S 758 mmHg 77%
    21:00 +20°C° 0 mm 5 m/S 758 mmHg 80%
    22:00 +19°C° 0 mm 5 m/S 759 mmHg 83%
    23:00 +19°C° 0 mm 5 m/S 758 mmHg 83%
    Mehr zeigen